Burlington, VT

3:22 PM EST on November 22, 2019 (GMT -0500)
Burlington International

Weather History for KBTV - September, 2019

Change the Weather History Date:

Wednesday, September 11, 2019

  Actual Average Record
Temperature  
Mean Temperature 69 °F 63 °F  
Max Temperature 83 °F 73 °F 95 °F (1931)
Min Temperature 55 °F 53 °F 33 °F (1918)
Degree Days  
Heating Degree Days 0 4  
Month to date heating degree days 21 33  
Since 1 July heating degree days 25 75  
Cooling Degree Days 4 2  
Month to date cooling degree days 9 27  
Year to date cooling degree days 589 475  
Growing Degree Days 22 (Base 50)    
Moisture  
Dew Point 63 °F    
Average Humidity 71    
Maximum Humidity 87    
Minimum Humidity 55    
Precipitation  
Precipitation 0.03 in 0.12 in 1.58 in (1955)
Month to date precipitation 2.23 1.22  
Year to date precipitation 28.52 25.29  
Snow  
Snow 0.00 in 0.00 in 0.00 in (2002)
Month to date snowfall 0.0 0.0  
Since 1 July snowfall 0.0 0.0  
Since 1 September snowfall 0.0 0.0  
Snow Depth 0.00 in    
Sea Level Pressure  
Sea Level Pressure 30.03 in    
Wind  
Wind Speed 11 mph (WSW)    
Max Wind Speed 21 mph    
Max Gust Speed 29 mph    
Visibility 10 miles    
Events Rain    
T = Trace of Precipitation, MM = Missing Value Source: NWS Daily Summary

Daily Weather History Graph

Daily Weather History Graph

Search for Another Location

Airport or City:

Astronomy

Sep. 11, 2019 Rise Set
Actual Time 6:26 AM EDT 7:11 PM EDT
Civil Twilight 5:57 AM EDT 7:40 PM EDT
Nautical Twilight 5:22 AM EDT 8:15 PM EDT
Astronomical Twilight 4:45 AM EDT 8:51 PM EDT
Moon 6:29 PM EDT (9/11) 3:37 AM EDT (9/11)
Length of Visible Light 13h 43m
Length of Day
12h 44m
Waxing Gibbous, 94% of the Moon is Illuminated
Sep 11
Waxing Gibbous
Sep 14
Full
Sep 21
Last Quarter
Sep 28
New
Oct 5
First Quarter

Hourly Weather History & Observations

Time (EDT) Temp. Heat Index Dew Point Humidity Pressure Visibility Wind Dir Wind Speed Gust Speed Precip Events Conditions
12:54 AM 68.0 °F - 64.0 °F 87% 30.06 in 10.0 mi South 15.0 mph 23.0 mph N/A   Mostly Cloudy
1:54 AM 68.0 °F - 64.0 °F 87% 30.04 in 10.0 mi South 15.0 mph - N/A   Clear
2:54 AM 69.1 °F - 63.0 °F 81% 30.02 in 10.0 mi South 15.0 mph 24.2 mph N/A   Clear
3:54 AM 70.0 °F - 63.0 °F 78% 30.02 in 10.0 mi South 13.8 mph - N/A   Scattered Clouds
4:54 AM 68.0 °F - 64.0 °F 87% 30.04 in 8.0 mi South 13.8 mph 25.3 mph 0.02 in Rain Light Rain
5:54 AM 68.0 °F - 64.0 °F 87% 30.03 in 10.0 mi South 12.7 mph - 0.01 in   Mostly Cloudy
6:54 AM 68.0 °F - 64.0 °F 87% 30.03 in 10.0 mi South 13.8 mph - N/A   Mostly Cloudy
7:54 AM 69.1 °F - 64.9 °F 87% 30.03 in 10.0 mi South 13.8 mph 21.9 mph N/A   Mostly Cloudy
8:54 AM 69.1 °F - 64.9 °F 87% 30.04 in 10.0 mi South 12.7 mph - N/A   Overcast
9:54 AM 71.1 °F - 66.0 °F 84% 30.03 in 10.0 mi South 10.4 mph - N/A   Mostly Cloudy
10:54 AM 73.0 °F - 66.0 °F 79% 30.01 in 10.0 mi South 15.0 mph 20.7 mph N/A   Mostly Cloudy
11:54 AM 75.9 °F - 66.9 °F 74% 30.00 in 10.0 mi South 12.7 mph - N/A   Mostly Cloudy
12:54 PM 80.1 °F 82.7 °F 68.0 °F 67% 29.99 in 10.0 mi SSW 9.2 mph - N/A   Mostly Cloudy
1:54 PM 79.0 °F - 66.0 °F 64% 29.99 in 10.0 mi WNW 9.2 mph - N/A   Mostly Cloudy
2:12 PM 77.0 °F - 66.9 °F 71% 29.99 in 10.0 mi NW 9.2 mph - N/A   Mostly Cloudy
2:50 PM 78.8 °F - 64.4 °F 61% 30.00 in 10.0 mi WNW 11.5 mph - N/A   Overcast
2:54 PM 79.0 °F - 64.9 °F 62% 29.99 in 10.0 mi NW 6.9 mph - N/A   Mostly Cloudy
3:54 PM 82.9 °F 84.4 °F 64.0 °F 53% 29.98 in 10.0 mi NW 10.4 mph - N/A   Scattered Clouds
4:54 PM 78.1 °F - 64.9 °F 64% 29.99 in 10.0 mi North 10.4 mph - N/A   Mostly Cloudy
5:54 PM 77.0 °F - 64.0 °F 64% 29.99 in 10.0 mi ENE 3.5 mph - N/A   Mostly Cloudy
6:54 PM 75.9 °F - 64.0 °F 67% 29.99 in 10.0 mi NNW 6.9 mph - N/A   Mostly Cloudy
7:54 PM 73.0 °F - 60.1 °F 64% 30.03 in 10.0 mi North 17.3 mph 25.3 mph N/A   Overcast
8:54 PM 70.0 °F - 57.9 °F 65% 30.07 in 10.0 mi North 11.5 mph - N/A   Mostly Cloudy
9:54 PM 64.9 °F - 55.0 °F 70% 30.09 in 10.0 mi North 10.4 mph 17.3 mph N/A   Scattered Clouds
10:54 PM 63.0 °F - 54.0 °F 72% 30.09 in 10.0 mi North 6.9 mph - N/A   Scattered Clouds
11:01 PM 63.0 °F - 54.0 °F 72% 30.10 in 10.0 mi North 9.2 mph - N/A   Mostly Cloudy
11:54 PM 63.0 °F - 54.0 °F 72% 30.11 in 10.0 mi North 10.4 mph - N/A   Overcast